Voltar ao catálogo

DELTA 1 DEB

AtivoPO
NORAD 21363·DEBRIS·🇺🇸 United States

Lançado Jun 12, 1975 de Vandenberg Space Force Base

Loading…

Próximas Passagens (próximas 24 horas)

TLE

AtualizadoSource: Space-Track

Época: Sep 14, 2026, 13:22 UTC

1 21363U 75052CH  26257.55736731  .00000150  00000-0  50057-3 0  9999
2 21363  99.7353 166.2759 0175662  67.5186 106.9894 13.10299769688151

Acompanhe DELTA 1 DEB em tempo real com AllMySat

Download on the App Store